| time (UTC) | temp C | wind direction | speed KPH | gust KPH | rain 1hr cm | rain 24hr cm | rain mn cm | humidity % | barometer mb |
| 20260507013038 | 16 | 0 | 0.0 | 0.0 | 0.00 | 0.00 | 0.00 | 59 | 1012.1 |
| 20260507011539 | 16 | 0 | 0.0 | 0.0 | 0.00 | 0.00 | 0.00 | 59 | 1012.0 |
| 20260507010042 | 16 | 0 | 0.0 | 0.0 | 0.00 | 0.00 | 0.00 | 59 | 1012.0 |
| 20260507004536 | 17 | 0 | 0.0 | 0.0 | 0.00 | 0.00 | 0.00 | 60 | 1011.9 |
| 20260507003032 | 17 | 0 | 0.0 | 0.0 | 0.00 | 0.00 | 0.00 | 60 | 1012.2 |
| 20260507001538 | 17 | 0 | 0.0 | 0.0 | 0.00 | 0.00 | 0.00 | 60 | 1012.3 |
| 20260507000038 | 17 | 0 | 0.0 | 0.0 | 0.00 | 0.00 | 0.00 | 60 | 1012.4 |
| 20260506234536 | 17 | 0 | 0.0 | 0.0 | 0.00 | 0.00 | 0.00 | 60 | 1012.4 |
| 20260506233036 | 17 | 0 | 0.0 | 0.0 | 0.00 | 0.00 | 0.00 | 60 | 1012.5 |
| 20260506231537 | 17 | 0 | 0.0 | 0.0 | 0.00 | 0.00 | 0.00 | 60 | 1012.6 |
| 20260506230039 | 17 | 0 | 0.0 | 0.0 | 0.00 | 0.00 | 0.00 | 61 | 1012.7 |
| 20260506224539 | 17 | 0 | 0.0 | 0.0 | 0.00 | 0.00 | 0.00 | 61 | 1012.7 |
| 20260506223033 | 17 | 0 | 0.0 | 0.0 | 0.00 | 0.00 | 0.00 | 61 | 1012.6 |
| 20260506221536 | 17 | 0 | 0.0 | 0.0 | 0.00 | 0.00 | 0.00 | 60 | 1012.7 |
| 20260506220040 | 17 | 0 | 0.0 | 0.0 | 0.00 | 0.00 | 0.00 | 60 | 1012.7 |
| 20260506214542 | 17 | 0 | 0.0 | 0.0 | 0.00 | 0.00 | 0.00 | 60 | 1012.9 |
| 20260506213037 | 17 | 0 | 0.0 | 6.4 | 0.00 | 0.00 | 0.00 | 60 | 1012.9 |
| 20260506211537 | 17 | 98 | 0.0 | 4.8 | 0.00 | 0.00 | 0.00 | 60 | 1013.0 |
| 20260506210039 | 17 | 0 | 0.0 | 4.8 | 0.00 | 0.00 | 0.00 | 60 | 1013.0 |
| 20260506204550 | 17 | 0 | 0.0 | 6.4 | 0.00 | 0.00 | 0.00 | 61 | 1012.9 |
| 20260506203039 | 17 | 106 | 0.0 | 6.4 | 0.00 | 0.00 | 0.00 | 61 | 1012.9 |
| 20260506201540 | 17 | 88 | 3.2 | 9.7 | 0.00 | 0.00 | 0.00 | 61 | 1012.5 |
| 20260506200037 | 17 | 94 | 1.6 | 9.7 | 0.00 | 0.00 | 0.00 | 60 | 1012.3 |
| 20260506194542 | 18 | 82 | 3.2 | 9.7 | 0.00 | 0.00 | 0.00 | 60 | 1012.1 |
| 20260506193035 | 18 | 88 | 3.2 | 11.3 | 0.00 | 0.00 | 0.00 | 59 | 1011.8 |
| 20260506191535 | 18 | 92 | 4.8 | 12.9 | 0.00 | 0.00 | 0.00 | 59 | 1011.7 |
| 20260506190054 | 18 | 46 | 4.8 | 19.3 | 0.00 | 0.00 | 0.00 | 58 | 1011.7 |
| 20260506184537 | 18 | 65 | 6.4 | 17.7 | 0.00 | 0.00 | 0.00 | 58 | 1011.5 |
| 20260506183040 | 18 | 148 | 11.3 | 20.9 | 0.00 | 0.00 | 0.00 | 56 | 1011.4 |
| 20260506181542 | 19 | 112 | 9.7 | 20.9 | 0.00 | 0.00 | 0.00 | 56 | 1011.5 |
| 20260506180039 | 19 | 111 | 11.3 | 20.9 | 0.00 | 0.00 | 0.00 | 54 | 1011.4 |
| 20260506174537 | 19 | 105 | 12.9 | 27.4 | 0.00 | 0.00 | 0.00 | 54 | 1011.3 |
| 20260506173037 | 20 | 119 | 11.3 | 25.7 | 0.00 | 0.00 | 0.00 | 53 | 1011.3 |
| 20260506171541 | 20 | 91 | 11.3 | 22.5 | 0.00 | 0.00 | 0.00 | 52 | 1011.3 |
| 20260506170038 | 20 | 67 | 8.0 | 22.5 | 0.00 | 0.00 | 0.00 | 53 | 1011.3 |
| 20260506164546 | 20 | 100 | 11.3 | 27.4 | 0.00 | 0.00 | 0.00 | 51 | 1011.2 |
| 20260506163040 | 20 | 85 | 14.5 | 30.6 | 0.00 | 0.00 | 0.00 | 49 | 1010.9 |
| 20260506161544 | 21 | 77 | 16.1 | 24.1 | 0.00 | 0.00 | 0.00 | 48 | 1010.9 |
| 20260506160043 | 21 | 161 | 12.9 | 25.7 | 0.00 | 0.00 | 0.00 | 47 | 1010.9 |
| 20260506154537 | 21 | 97 | 12.9 | 25.7 | 0.00 | 0.00 | 0.00 | 47 | 1010.8 |
| 20260506153038 | 21 | 79 | 16.1 | 25.7 | 0.00 | 0.00 | 0.00 | 48 | 1011.0 |
| 20260506151553 | 21 | 131 | 14.5 | 30.6 | 0.00 | 0.00 | 0.00 | 47 | 1011.1 |
| 20260506150036 | 21 | 92 | 14.5 | 27.4 | 0.00 | 0.00 | 0.00 | 48 | 1011.1 |
| 20260506144532 | 21 | 132 | 16.1 | 29.0 | 0.00 | 0.00 | 0.00 | 49 | 1011.0 |
| 20260506143046 | 21 | 158 | 12.9 | 32.2 | 0.00 | 0.00 | 0.00 | 49 | 1011.2 |
| 20260506141537 | 21 | 83 | 16.1 | 33.8 | 0.00 | 0.00 | 0.00 | 48 | 1011.4 |
| 20260506140039 | 22 | 95 | 14.5 | 30.6 | 0.00 | 0.00 | 0.00 | 48 | 1011.5 |
| 20260506134536 | 21 | 126 | 14.5 | 29.0 | 0.00 | 0.00 | 0.00 | 49 | 1011.4 |
| 20260506133040 | 22 | 76 | 12.9 | 25.7 | 0.00 | 0.00 | 0.00 | 47 | 1011.5 |
| 20260506131532 | 22 | 88 | 16.1 | 30.6 | 0.00 | 0.00 | 0.00 | 47 | 1011.4 |
| 20260506130037 | 22 | 113 | 12.9 | 25.7 | 0.00 | 0.00 | 0.00 | 48 | 1011.6 |
| 20260506124538 | 22 | 87 | 12.9 | 27.4 | 0.00 | 0.00 | 0.00 | 46 | 1011.7 |
| 20260506123038 | 22 | 96 | 14.5 | 27.4 | 0.00 | 0.00 | 0.00 | 46 | 1011.5 |
| 20260506121536 | 22 | 63 | 12.9 | 29.0 | 0.00 | 0.00 | 0.00 | 44 | 1011.7 |
| 20260506120040 | 22 | 74 | 14.5 | 24.1 | 0.00 | 0.00 | 0.00 | 44 | 1011.8 |
| 20260506114542 | 22 | 49 | 11.3 | 24.1 | 0.00 | 0.00 | 0.00 | 44 | 1011.9 |
| 20260506113037 | 22 | 101 | 16.1 | 30.6 | 0.00 | 0.00 | 0.00 | 45 | 1011.9 |
| 20260506111539 | 22 | 134 | 16.1 | 30.6 | 0.00 | 0.00 | 0.00 | 46 | 1011.9 |
| 20260506110041 | 22 | 60 | 16.1 | 27.4 | 0.00 | 0.00 | 0.00 | 43 | 1012.0 |
| 20260506104533 | 22 | 107 | 9.7 | 25.7 | 0.00 | 0.00 | 0.00 | 42 | 1012.1 |
| 20260506103034 | 22 | 86 | 9.7 | 22.5 | 0.00 | 0.00 | 0.00 | 41 | 1012.1 |
| 20260506101550 | 22 | 69 | 8.0 | 20.9 | 0.00 | 0.00 | 0.00 | 41 | 1012.2 |
| 20260506100038 | 22 | 144 | 8.0 | 19.3 | 0.00 | 0.00 | 0.00 | 42 | 1012.3 |
| 20260506094545 | 21 | 59 | 9.7 | 20.9 | 0.00 | 0.00 | 0.00 | 43 | 1012.3 |
| 20260506093033 | 21 | 98 | 4.8 | 16.1 | 0.00 | 0.00 | 0.00 | 46 | 1012.2 |
| 20260506091533 | 21 | 101 | 6.4 | 19.3 | 0.00 | 0.00 | 0.00 | 46 | 1012.2 |
| 20260506090036 | 20 | 90 | 6.4 | 17.7 | 0.00 | 0.00 | 0.00 | 49 | 1012.0 |
| 20260506084537 | 19 | 0 | 1.6 | 8.0 | 0.00 | 0.00 | 0.00 | 54 | 1011.9 |
| 20260506083040 | 19 | 67 | 1.6 | 6.4 | 0.00 | 0.00 | 0.00 | 55 | 1012.1 |
| 20260506081538 | 19 | 0 | 0.0 | 4.8 | 0.00 | 0.00 | 0.00 | 56 | 1012.1 |
| 20260506073037 | 18 | 0 | 0.0 | 4.8 | 0.00 | 0.00 | 0.00 | 56 | 1011.9 |
| 20260506071550 | 18 | 0 | 0.0 | 0.0 | 0.00 | 0.00 | 0.00 | 54 | 1012.0 |
| 20260506061537 | 15 | 0 | 0.0 | 4.8 | 0.00 | 0.00 | 0.00 | 58 | 1012.0 |
| 20260506044537 | 13 | 296 | 1.6 | 6.4 | 0.00 | 0.00 | 0.00 | 60 | 1011.2 |
| 20260506043036 | 14 | 0 | 0.0 | 0.0 | 0.00 | 0.00 | 0.00 | 61 | 1010.9 |
| 20260506041545 | 13 | 0 | 0.0 | 4.8 | 0.00 | 0.00 | 0.00 | 61 | 1011.0 |
| 20260506040033 | 13 | 121 | 3.2 | 9.7 | 0.00 | 0.00 | 0.00 | 61 | 1010.9 |
| 20260506034537 | 14 | 96 | 1.6 | 4.8 | 0.00 | 0.00 | 0.00 | 60 | 1010.8 |
| 20260506033037 | 15 | 98 | 3.2 | 9.7 | 0.00 | 0.00 | 0.00 | 58 | 1010.9 |
| 20260506031534 | 15 | 293 | 3.2 | 8.0 | 0.00 | 0.00 | 0.00 | 57 | 1010.8 |
| 20260506030035 | 15 | 273 | 4.8 | 11.3 | 0.00 | 0.00 | 0.00 | 58 | 1010.6 |
| 20260506024537 | 15 | 0 | 0.0 | 1.6 | 0.00 | 0.00 | 0.00 | 60 | 1010.6 |
| 20260506023037 | 15 | 0 | 0.0 | 4.8 | 0.00 | 0.00 | 0.00 | 60 | 1010.6 |
| 20260506021536 | 15 | 289 | 3.2 | 11.3 | 0.00 | 0.00 | 0.00 | 61 | 1010.6 |
| 20260506020033 | 15 | 267 | 6.4 | 12.9 | 0.00 | 0.00 | 0.00 | 61 | 1010.8 |
| 20260506014546 | 16 | 294 | 3.2 | 11.3 | 0.00 | 0.00 | 0.00 | 61 | 1010.8 |